Date String (YYYY-MM-DD hh:mm:ss) UTC,Instrument flags,Ambient pressure (hPa),Sample flow (lpm),Bypass flow (lpm),Sample temperature (°C),Ambient temperature (°C),ASC tube jacket temperature (°C),LED temperature (°C),Box temperature (°C),Sample RH (%),Span deviation,Mass concentration (μg/m³),Mass concentration (μg/m³),Mass concentration (μg/m³)
DateTimeUTC,F1_M11,P_M11,Q1_M11,Q2_M11,T1_M11,T2_M11,T3_M11,T4_M11,T5_M11,U1_M11,ZSPAN_M11,X0_M11,X2_M11,X1_M11
2022-03-18 05:00:00,,0829.1,5.02,0.00,22.6,21.8,00.0,31.5,24.3,15.9,0000.0,0003.51,0002.65,0002.37
2022-03-18 05:01:00,,0829.1,4.99,0.00,22.5,21.8,00.0,31.5,24.3,15.9,0000.0,0003.44,0002.60,0002.33
2022-03-18 05:02:00,,0829.1,4.99,0.00,22.5,21.8,00.0,31.5,24.3,15.9,0000.0,0003.40,0002.57,0002.30
2022-03-18 05:03:00,,0829.1,5.00,0.00,22.5,21.8,00.0,31.5,24.3,15.9,0000.0,0003.33,0002.55,0002.29
2022-03-18 05:04:00,,0829.1,5.00,0.00,22.5,21.8,00.0,31.5,24.3,15.9,0000.0,0003.32,0002.55,0002.28
2022-03-18 05:05:00,,0829.1,5.00,0.00,22.5,21.8,00.0,31.5,24.3,16.0,0000.0,0003.29,0002.53,0002.27
2022-03-18 05:06:00,,0829.1,4.99,0.00,22.5,21.7,00.0,31.5,24.3,16.1,0000.0,0003.30,0002.52,0002.26
2022-03-18 05:07:00,,0829.1,5.00,0.00,22.5,21.7,00.0,31.5,24.2,16.2,0000.0,0003.28,0002.52,0002.25
2022-03-18 05:08:00,,0829.0,5.00,0.00,22.5,21.7,00.0,31.5,24.2,16.3,0000.0,0003.43,0002.58,0002.25
2022-03-18 05:09:00,,0829.1,5.01,0.00,22.4,21.7,00.0,31.5,24.2,16.4,0000.0,0003.39,0002.58,0002.26
2022-03-18 05:10:00,,0829.0,5.00,0.00,22.4,21.7,00.0,31.5,24.2,16.5,0000.0,0003.65,0002.63,0002.26
2022-03-18 05:11:00,,0829.0,4.99,0.00,22.4,21.7,00.0,31.5,24.2,16.4,0000.0,0003.76,0002.66,0002.26
2022-03-18 05:12:00,,0829.0,5.01,0.00,22.4,21.7,00.0,31.5,24.2,16.3,0000.0,0003.80,0002.67,0002.27
2022-03-18 05:13:00,,0829.0,5.00,0.00,22.4,21.7,00.0,31.5,24.2,16.3,0000.0,0003.70,0002.64,0002.27
2022-03-18 05:14:00,,0829.1,5.00,0.00,22.4,21.7,00.0,31.4,24.2,16.2,0000.0,0003.69,0002.65,0002.28
2022-03-18 05:15:00,,0829.1,5.01,0.00,22.4,21.6,00.0,31.4,24.2,16.2,0000.0,0003.64,0002.62,0002.28
2022-03-18 05:16:00,,0829.0,5.00,0.00,22.4,21.6,00.0,31.4,24.2,16.2,0000.0,0003.63,0002.61,0002.27
2022-03-18 05:17:00,,0829.0,5.00,0.00,22.4,21.6,00.0,31.4,24.2,16.2,0000.0,0003.64,0002.63,0002.28
2022-03-18 05:18:00,,0829.0,4.99,0.00,22.4,21.6,00.0,31.4,24.1,16.2,0000.0,0003.59,0002.61,0002.28
2022-03-18 05:19:00,,0829.1,5.00,0.00,22.4,21.6,00.0,31.4,24.1,16.3,0000.0,0003.34,0002.52,0002.28
2022-03-18 05:20:00,,0829.1,5.01,0.00,22.4,21.6,00.0,31.4,24.1,16.4,0000.0,0003.37,0002.51,0002.26
2022-03-18 05:21:00,,0829.1,5.00,0.00,22.3,21.6,00.0,31.4,24.1,16.4,0000.0,0003.32,0002.51,0002.26
2022-03-18 05:22:00,,0829.1,5.00,0.00,22.3,21.6,00.0,31.4,24.1,16.4,0000.0,0003.32,0002.52,0002.28
2022-03-18 05:23:00,,0829.1,4.99,0.00,22.3,21.5,00.0,31.4,24.1,16.3,0000.0,0003.31,0002.51,0002.27
2022-03-18 05:24:00,,0829.1,4.99,0.00,22.3,21.5,00.0,31.4,24.1,16.2,0000.0,0003.33,0002.52,0002.27
2022-03-18 05:25:00,,0829.1,5.00,0.00,22.3,21.5,00.0,31.4,24.1,16.0,0000.0,0003.34,0002.50,0002.24
2022-03-18 05:26:00,,0829.0,5.01,0.00,22.3,21.5,00.0,31.4,24.1,16.0,0000.0,0003.40,0002.53,0002.24
2022-03-18 05:27:00,,0829.1,5.00,0.00,22.3,21.5,00.0,31.3,24.1,16.0,0000.0,0003.45,0002.55,0002.23
2022-03-18 05:28:00,,0829.1,4.99,0.00,22.3,21.6,00.0,31.3,24.1,15.8,0000.0,0004.70,0002.54,0002.21
2022-03-18 05:29:00,,0829.1,5.00,0.00,22.4,22.2,00.0,31.4,24.3,15.7,0000.0,0004.75,0002.54,0002.21
2022-03-18 05:30:00,,0829.1,4.99,0.00,22.5,23.0,00.0,31.4,24.5,15.5,0000.0,0004.78,0002.55,0002.20
2022-03-18 05:31:00,,0829.1,5.01,0.00,22.6,23.0,00.0,31.5,24.6,15.4,0000.0,0004.81,0002.57,0002.20
2022-03-18 05:32:00,,0829.0,4.99,0.00,22.7,22.8,00.0,31.5,24.6,15.4,0000.0,0004.66,0002.55,0002.19
2022-03-18 05:33:00,,0828.9,5.01,0.00,22.7,22.6,00.0,31.5,24.6,15.5,0000.0,0004.63,0002.53,0002.18
2022-03-18 05:34:00,,0828.9,4.98,0.00,22.6,22.5,00.0,31.5,24.5,15.6,0000.0,0004.65,0002.53,0002.18
2022-03-18 05:35:00,,0829.0,5.01,0.00,22.6,22.4,00.0,31.5,24.5,15.7,0000.0,0004.68,0002.55,0002.18
2022-03-18 05:36:00,,0829.0,4.99,0.00,22.6,22.2,00.0,31.5,24.5,15.8,0000.0,0004.75,0002.58,0002.19
2022-03-18 05:37:00,,0829.0,5.00,0.00,22.6,22.2,00.0,31.5,24.4,15.9,0000.0,0004.68,0002.55,0002.20
2022-03-18 05:38:00,,0828.9,5.01,0.00,22.6,22.1,00.0,31.5,24.4,16.0,0000.0,0004.62,0002.53,0002.22
2022-03-18 05:39:00,,0829.0,5.00,0.00,22.6,22.0,00.0,31.5,24.4,16.1,0000.0,0003.69,0002.54,0002.24
2022-03-18 05:40:00,,0829.0,5.01,0.00,22.6,22.0,00.0,31.5,24.3,16.1,0000.0,0003.47,0002.53,0002.24
2022-03-18 05:41:00,,0829.0,5.00,0.00,22.6,21.9,00.0,31.5,24.3,16.2,0000.0,0003.59,0002.52,0002.25
2022-03-18 05:42:00,,0829.0,5.00,0.00,22.6,21.9,00.0,31.5,24.3,16.2,0000.0,0003.56,0002.49,0002.25
2022-03-18 05:43:00,,0829.0,5.00,0.00,22.5,21.9,00.0,31.5,24.3,16.2,0000.0,0003.60,0002.50,0002.27
2022-03-18 05:44:00,,0829.0,5.00,0.00,22.5,21.8,00.0,31.5,24.3,16.3,0000.0,0003.58,0002.52,0002.29
2022-03-18 05:45:00,,0829.0,4.99,0.00,22.5,21.8,00.0,31.5,24.3,16.3,0000.0,0003.68,0002.58,0002.31
2022-03-18 05:46:00,,0828.9,5.00,0.00,22.5,21.8,00.0,31.5,24.3,16.3,0000.0,0003.72,0002.60,0002.32
2022-03-18 05:47:00,,0829.0,5.01,0.00,22.5,21.7,00.0,31.5,24.2,16.3,0000.0,0003.66,0002.59,0002.32
2022-03-18 05:48:00,,0829.0,5.00,0.00,22.5,21.7,00.0,31.5,24.2,16.4,0000.0,0003.83,0002.63,0002.33
2022-03-18 05:49:00,,0828.9,4.99,0.00,22.5,21.7,00.0,31.5,24.2,16.3,0000.0,0003.85,0002.64,0002.34
2022-03-18 05:50:00,,0828.9,4.98,0.00,22.5,21.7,00.0,31.5,24.2,16.3,0000.0,0003.90,0002.65,0002.35
2022-03-18 05:51:00,,0828.9,5.00,0.00,22.4,21.7,00.0,31.5,24.2,16.2,0000.0,0003.91,0002.65,0002.34
2022-03-18 05:52:00,,0828.8,5.01,0.00,22.4,21.7,00.0,31.5,24.2,16.2,0000.0,0003.77,0002.65,0002.33
2022-03-18 05:53:00,,0828.8,5.00,0.00,22.4,21.6,00.0,31.5,24.2,16.2,0000.0,0003.80,0002.67,0002.35
2022-03-18 05:54:00,,0829.3,4.99,0.00,22.4,21.6,00.0,31.5,24.1,16.2,0000.0,0003.71,0002.66,0002.35
2022-03-18 05:55:00,,0829.1,5.00,0.00,22.4,21.6,00.0,31.4,24.1,16.1,0000.0,0003.73,0002.65,0002.34
2022-03-18 05:56:00,,0829.3,5.00,0.00,22.4,21.6,00.0,31.4,24.1,16.1,0000.0,0003.71,0002.63,0002.33
2022-03-18 05:57:00,,0828.8,5.00,0.00,22.4,21.6,00.0,31.4,24.1,16.0,0000.0,0003.73,0002.62,0002.32
2022-03-18 05:58:00,,0828.7,5.00,0.00,22.4,21.6,00.0,31.4,24.1,16.0,0000.0,0003.78,0002.65,0002.32
2022-03-18 05:59:00,,0828.7,4.99,0.00,22.3,21.5,00.0,31.4,24.1,15.9,0000.0,0003.80,0002.68,0002.33
